Regional Weather Roundup
Issued by NWS

Home | Current Version | Previous Version | Text Only | Print | Product List | Glossary On
Versions: 1 2 3 4 5 6 7 8 9 10 11 12 13 14 15 16 17 18 19 20 21 22 23 24 25 26 27 28 29 30 31 32 33 34 35 36 37 38 39 40 41 42 43 44 45 46 47 48 49
000
ASUS45 KREV 032210
RWRNV
NEVADA REGIONAL WEATHER ROUNDUP
NATIONAL WEATHER SERVICE RENO NV
300 PM PDT THU SEP 03 2015

NOTE: "FAIR" INDICATES FEW OR NO CLOUDS BELOW 12,000 FEET WITH NO
SIGNIFICANT WEATHER AND/OR OBSTRUCTIONS TO VISIBILITY.

NVZ001-003-004-032300-
WESTERN NEVADA

CITY           SKY/WX    TMP DP  RH WIND       PRES   REMARKS
RENO           MOSUNNY   78  36  21 W9        29.88S
CARSON CITY    FAIR      77  32  19 W16G23    29.90S
MINDEN         FAIR      77  32  19 W22G28    29.89F
PYRAMID LAKE     N/A     79 N/A N/A S14         N/A
FALLON         MOSUNNY   87  28  12 SW16G30   29.79F
LOVELOCK       MOSUNNY   82  33  17 SW21G26   29.81F
HAWTHORNE      SUNNY     84  25  11 NW12      29.80F
$$

NVZ002-CAZ072-073-032300-
NORTHERN AND CENTRAL SIERRA

CITY           SKY/WX    TMP DP  RH WIND       PRES   REMARKS
S. LAKE TAHOE  PTSUNNY   67  36  31 S15G25    30.00S
TRUCKEE        PTSUNNY   68  36  30 SW14G20   30.00S
SQUAW VLY 8000   N/A     54  34  47 SE6         N/A
SUSANVILLE     MOSUNNY   75  30  19 SW14G21   29.88F
BLUE CANYON    SUNNY     62  38  40 S14G25    30.02S
MAMMOTH LAKES  FAIR      73  32  21 W15G28    30.03S
BRIDGEPORT     FAIR      68  29  23 SW16G26   30.00F
$$

NVZ030-031-036-032300-
NORTHERN NEVADA

CITY           SKY/WX    TMP DP  RH WIND       PRES   REMARKS
ELKO           MOSUNNY   82  27  13 W15G28    29.81F
WINNEMUCCA     PTSUNNY   76  32  20 VRB5      29.83F
WENDOVER       PTSUNNY   90  36  14 S20G26    29.75F
$$

NVZ035-037-032300-
CENTRAL NEVADA

CITY           SKY/WX    TMP DP  RH WIND       PRES   REMARKS
ELY            SUNNY     81  23  11 S23G38    29.95F
EUREKA           N/A     84  15   7 SW18G38   29.87F
$$

NVZ013-014-032300-
SOUTH CENTRAL NEVADA

CITY           SKY/WX    TMP DP  RH WIND       PRES   REMARKS
TONOPAH        SUNNY     84  18   8 S17G32    29.90F
$$

NVZ017-020-022-032300-
SOUTHERN NEVADA

CITY           SKY/WX    TMP DP  RH WIND       PRES   REMARKS
LAS VEGAS      MOSUNNY   98  32  10 W12G18    29.70F
N. LAS VEGAS   SUNNY     98  34  10 W14       29.74F
NELLIS AFB     SUNNY     99  36  11 SW15G24   29.71F
HENDERSON        N/A     98  39  13 MISG        N/A
MERCURY        MOSUNNY   91  28  10 SW24G31   29.83F
$$



USA.gov is the U.S. government's official web portal to all federal, state and local government web resources and services.